SL-16 DEB

Satellite information

Favourite Embed

Satellite Type and Status

DEBRISIN ORBIT

Key statistics

Satellite SL-16 DEB at a glance.

Uptime

11988

Days in orbit

Revolutions

≈ 14.1

Per day

Orbit

LEO

Low Earth Orbit

Inclination

71.1

Latest

Satellite identification and parameters

Extended collection of information and parameters for SL-16 DEB.

Object identification

Identified? True

Debris? True

Object name: SL-16 DEB

International designator: 1992-093HW

Object number (NORAD): 22574

Object ID (CCSDS): 22574

Country: COMMONWEALTH OF INDEPENDENT STATES (CIS)

Current information (Y/N): Y

RCS size: SMALL

Orbital parameters

Period: 101.799 minutes

Inclination: 71.0878 deg

SMA: 7221.983 km

Apoapsis: 933.274 km

Periapsis: 754.422 km

RAAN: 5.9532 deg

Eccentricy: 0.0123825

Argument of periapsis: 148.4383 deg

Mean anomaly: 282.4063 deg

Mean motion: 14.14549162 rev/day

Mean motion (dot): 0.0000264 rev/day2

B* drag term: 0.0012989 1/REarth

Two-line elements (TLE)

Creation date: Oct. 17, 2025, 6:56 a.m.

Reference frame: TEME

Reference center: EARTH

Epoch: Oct. 16, 2025, 2:27 p.m. UTC

TLE line 0: 0 SL-16 DEB

TLE line 1: 1 22574U 92093HW 25289.60222286 .00002640 00000-0 12989-2 0 9990

TLE line 2: 2 22574 71.0878 5.9532 0123825 148.4383 282.4063 14.14549162666717

Live tracking on map

Real-time ground track for satellite SL-16 DEB.

In-orbit conjunctions

A list of the most updated potential collisions computed for object SL-16 DEB.

Target Orbit TCA Probability of collision Miss distance Type
CBERS 2B SSO 2025-06-02 01:21:18 0.000119262 294.0 (m) PAYLOAD
FENGYUN 1C DEB SSO 2024-11-14 02:33:51 0.0002205925 419.0 (m) DEBRIS
NOAA 17 DEB SSO 2024-07-06 22:15:19 0.0001148659 235.0 (m) DEBRIS

Associated space launch

Second generation ELING satellite

SL-16 DEB was lifted into orbit during the mission ‘Zenit-2 | Tselina-2 12’, on board a Zenit-2 space rocket.

The launch took place on Dec. 25, 1992, 5:56 a.m. from 45/1.

For more information about the launch, click the button.

Launch to space Zenit-2 | Tselina-2 12
Zenit-2 | Tselina-2 12

Agency: N/A

Status: Launch Successful

Launch date: Dec. 25, 1992, 5:56 a.m. UTC

Rocket: Zenit-2

Launch pad: 45/1

Location: Baikonur Cosmodrome, Republic of Kazakhstan

...

Latest news about this satellite

There are no fresh news available about this satellite. Check back as we update our databases every day.


Newsletter sign-up

Weekly statistics, charts and insights to help you stay on top of the space industry.